Regional Weather Roundup
Issued by NWS

Home | Current Version | Previous Version | Text Only | Print | Product List | Glossary On
Versions: 1 2 3 4 5 6 7 8 9 10 11 12 13 14 15 16 17 18 19 20 21 22 23 24 25 26 27 28 29 30 31 32 33 34 35 36 37 38 39 40 41 42 43 44 45 46 47 48 49 50
000
ASHW40 PHFO 210143
RWRHI

WEATHER ROUNDUP FOR HAWAII
NATIONAL WEATHER SERVICE HONOLULU HI
300 PM HST MON FEB 20 2017

THIS IS AN AUTOMATED REPORT THAT HAS NOT BEEN QUALITY CONTROLLED.

NOTE..."FAIR" INDICATES FEW OR NO CLOUDS BELOW 12,000 FEET WITH NO
SIGNIFICANT WEATHER AND/OR OBSTRUCTIONS TO VISIBILITY.

* - THESE SITES REPORT LIMITED FIELDS

HIZ001>004-210200-
KAUAI-NIIHAU-

CITY           SKY/WX    TMP DP  RH WIND       PRES   REMARKS
LIHUE APT      PTSUNNY   75  58  55 NE20      30.19F
PORT ALLEN*      N/A     77 N/A N/A NE23G31     N/A
POIPU*           N/A     77 N/A N/A NE12G23     N/A
PRINCEVILLE*     N/A     73 N/A N/A E12G20      N/A
KOKOLE POINT*  NOT AVBL
MOLOAA DAIRY*    N/A     75  57  53 E9G15       N/A
WAIMEA HTS*      N/A     81  57  44 SW8G17      N/A
PUU OPAE*      NOT AVBL
PUU LUA*       NOT AVBL
MAKAHA RIDGE*    N/A     72  54  53 SW3G10      N/A
$$

HIZ005>011-210200-
OAHU-

CITY           SKY/WX    TMP DP  RH WIND       PRES   REMARKS
HONOLULU       MOSUNNY   78  54  43 E23G35    30.15F
KALAELOA       SUNNY     79  56  45 E12G21    30.16F
KANEOHE MCB    CLOUDY    75  59  57 E14G22    30.15
WHEELER FIELD  FAIR      73  57  57 NE12      30.16
BELLOWS*         N/A    N/A N/A N/A NE21        N/A
KAHUKU*          N/A    N/A N/A N/A NE12G24     N/A
WHEELER*         N/A    N/A N/A N/A NE10G17     N/A
WAIANAE HARBOR   N/A    N/A N/A N/A E12G21      N/A
DILLINGHAM*    NOT AVBL
KAHUKU TRN*      N/A     75  57  53 W12G24      N/A
KAWAILOA*        N/A     70  55  60 E15G30      N/A
KII*             N/A     73  59  60 E20G28      N/A
MAKUA RANGE*     N/A     79  59  50 W12G26      N/A
OAHU FOREST NW   N/A     66  54  63 CALM        N/A
SCHOFIELD BRK*   N/A     73  57  56 MISG        N/A
SCHOFIELD S*   NOT AVBL
WAIANAE VLY*     N/A     75  55  50 VRB6        N/A
KUAOKALA*        N/A     70   0   6 E23G36      N/A
HONOULIUULI*   NOT AVBL
MOKUOLOE IS*   NOT AVBL
PALEHUA*         N/A     66  54  63 E8G18       N/A
WAIAWA PHB*    NOT AVBL
$$

HIZ012>013-210200-
MOLOKAI-

CITY           SKY/WX    TMP DP  RH WIND       PRES   REMARKS
MOLOKAI AIRPT  SUNNY     76  60  57 NE18G38   30.14F
KALAUPAPA      NOT AVBL
MAKAPULAPAI*     N/A     75  63  64 E25G33      N/A
MOLOKAI 1*     NOT AVBL
PUU ALII*        N/A     55  54  97 N3G15       N/A
$$

HIZ016-210200-
KAHOOLAWE-

CITY           SKY/WX    TMP DP  RH WIND       PRES   REMARKS
KAHOOLAWE*     NOT AVBL
HAKIOAWA*        N/A     71  58  64 MISG      30.54F
HONOKANAIA*      N/A     79  59  50 NE20G31   30.07F
KANELOA*         N/A     75  61  60 NE20G41   30.19F
KEALIALALO*    NOT AVBL
LUA MAKIKA*    NOT AVBL
$$

HIZ014>015-210200-
LANAI-

CITY           SKY/WX    TMP DP  RH WIND       PRES   REMARKS
LANAI CITY       N/A     70  57  64 NE23      30.16S
LANAI 1*       NOT AVBL
$$

HIZ017>028-210200-
MAUI-

CITY           SKY/WX    TMP DP  RH WIND       PRES   REMARKS
KAHULUI        MOSUNNY   78  61  55 NE25G35   30.14F
KAPALUA-W MAUI MOSUNNY   73  59  60 NE18G31   30.13
HANA AIRPORT   PTSUNNY   75  63  64 NE9       30.20F
HANA*            N/A     75 N/A N/A NE10        N/A
HALEAKALA SUMM   N/A     48  25  40 SW10        N/A
MAALAEA BAY*     N/A     77 N/A N/A N23G38      N/A
HALEAKALA*     NOT AVBL
KAUPO GAP*       N/A     81  66  61 S3G13       N/A
KULA 1*          N/A     59  55  86 SW3         N/A
$$

HIZ023>026-210200-
BIG ISLAND OF HAWAII COAST AND LOWER SLOPES-

CITY           SKY/WX    TMP DP  RH WIND       PRES   REMARKS
KAILUA KONA    CLOUDY    80  62  54 SW10      30.07F
HILO           CLOUDY    75  58  55 NE10      30.16F
HONOKAA*         N/A     66 N/A N/A VRB1        N/A
KAWAIHAE MWT*    N/A     82 N/A N/A SW10        N/A
KAWAIHAE*        N/A     79 N/A N/A W9        30.06F
SOUTH POINT*     N/A     73 N/A N/A N26G39      N/A
UPOLU AIRPORT* NOT AVBL
KAMUELA*       MOCLDY    64  57  77 NE28      30.17F
HAKALAU*         N/A     51  49  94 NE3         N/A
KALOKO-HONOKO*   N/A     82  64  54 W8        30.07F
PALI 2*          N/A     70  55  60 S25G38      N/A
KEALAKOMO*       N/A    N/A N/A N/A NE24G37     N/A
KAUPULEHU*       N/A     77  57  50 NE18G35     N/A
KAPAPALA*        N/A     84  55  36 NE8G21      N/A
LOWER KAHUKU*    N/A     63  59  88 E3G12       N/A
PUHE CS*         N/A     84  61  45 SW3G9       N/A
PUHO CS*         N/A     83  63  50 W3G10       N/A
PTA KEAMUKU*     N/A     63  54  72 CALM        N/A
WAIKOLOA*        N/A     75  57  53 NE22G39     N/A
$$

HIZ027>028-210200-
BIG ISLAND OF HAWAII INTERIOR AND SUMMMITS-

CITY           SKY/WX    TMP DP  RH WIND       PRES   REMARKS
BRADSHAW FIELD PTSUNNY   65  38  36 SW7       30.36S
MK VISITOR CEN   N/A     41  30  65 N13         N/A
MAUNA KEA*       N/A     25  21  86 W14         N/A  WCI  13
MAUNA LOA*       N/A    N/A N/A N/A MISG        N/A
MAUNA LOA 1*   NOT AVBL
PTA KIPUKA*      N/A     70  48  46 W8G15       N/A
PTA RANGE 17*    N/A     70  46  43 W12G18      N/A
PTA WEST*        N/A     72  46  40 W9G20       N/A
NENE CABIN*      N/A     55  46  71 E7G15       N/A
AHUMOA*          N/A     66  42  42 W7G13       N/A
PTA PORTABLE*  NOT AVBL
PUU MALI*        N/A    N/A N/A N/A E15G25      N/A
$$

HIC003-210200-
NORTHWEST ISLANDS-

CITY           SKY/WX    TMP DP  RH WIND       PRES   REMARKS
MIDWAY ISLAND  PTSUNNY   68  63  83 N14G20    30.18S
MIDWAY NOS*      N/A     66 N/A N/A MISG      30.15F
FRENCH FRIGATE NOT AVBL
$$

PHZ110>124-180-210200-
BUOY REPORTS

STATION/POSITION TIME  TEMP    WIND        PRES    WAVE   SWELL
                       AIR SEA DIR/SP/G            HT/PER HT/DIR
                 (UTC) (F)     (DEG/KT/KT) (MB)    (FT/S) (FT/D)
BUOY 51001       0110   70 72   90/ 16/ 19 1023.5
BUOY 51101       0050   70 72   80/ 16/ 17 1024.0F   9/11   7/340
BUOY 51100       NOT AVBL
BUOY 51002       0110   76 78   60/ 23/ 29 1017.1
BUOY 51003       0050   75 77   50/ 16/ 19 1019.3F  12/ 8  10/ 50
BUOY 51004       0050      77   40/ 23/ 27 1017.8F  12/14   8/350
BARBERS PT BUOY  NOT AVBL
WAIMEA BAY BUOY  0102      75                N/A    10/13   8/340
KAILUA BAY BUOY  0104      76                N/A    10/13   5/360
LANAI BUOY       0115      77                N/A     3/13   2/320
BARBERS PT 2     NOT AVBL
PAUWELA MAUI     0109      75                N/A    10/13   8/330
HILO             0112      77                N/A    10/13   7/330
KANEOHE BAY BUOY 0106      76                N/A    10/13   7/360
HANALEI KAUAI    0122      75                N/A     9/12   5/320
KAHULUI HARBOR   0112   73 76   50/ 16/ 24 1020.9
HONOLULU HARBOR  0112   74 75   60/  8/ 13 1021.7
KILO NALU        NOT AVBL
HILO HARBOR      0112   74 76   30/ 10/ 15 1021.1
MOKUOLOE         0036   73 75   70/ 14/ 20 1021.8F
NAWILIWILI       0112   73 76   40/ 12/ 15 1021.8
WHOTS BUOY       NOT AVBL
BUOY 51028       NOT AVBL
$$

......................KEY........................................
  SKY/WX - SKY CONDITIONS/PRESENT WEATHER
  TMP    - TEMPERATURE IN FAHRENHEIT
  DWPT   - DEWPOINT IN FAHRENHEIT
  RH     - RELATIVE HUMIDITY IN PERCENT
  WIND   - DIRECTION AND SPEED /MPH FOR ISLANDS...KTS FOR BUOYS/
  PRES   - MEAN SEA LEVEL PRESSURE IN INCHES OF HG
  VSB    - VISIBILITY IN MILES
  HX     - HEAT INDEX
  WCI    - WIND CHILL INDEX
  VRB    - VARIABLE WIND DIRECTION
  N/A    - NOT AVAILABLE




USA.gov is the U.S. government's official web portal to all federal, state and local government web resources and services.